Dewpoint
14 13 7 5 4 4 5 5 4 3 3 4 7 12 11 8 8 9 10 11 10 10 11 11 10 10 11 10 10 9 9 8 8 9 10 10 10 11 11 11 12 11 9
14 14 8 5 4 4 5 5 5 5 5 6 9 8 8 8 10 11 11 12 12 11 12 12 11 11 12 10 9 8 8 9 9 10 11 11 10 10 10 11 11 10 11
14 14 9 7 5 5 5 6 6 6 6 7 7 8 9 12 12 11 12 12 12 11 11 11 11 11 9 9 8 8 7 8 8 11 10 10 10 9 9 9 10 10 11
14 14 10 8 6 5 6 6 6 7 8 8 9 12 12 12 11 10 11 11 10 11 10 9 10 10 8 4 3 1 2 4 6 11 11 12 10 10 9 9 8 8 8
13 14 13 10 7 7 7 7 7 8 9 10 13 13 13 12 10 8 9 8 6 2 5 8 7 5 3 0 -2 -4 -4 1 8 10 10 10 10 10 7 4 6 5 3
13 14 14 13 13 9 8 8 8 9 11 13 13 13 13 12 9 6 4 2 1 -2 -3 -2 -2 -4 -6 -8 -9 -9 -8 -1 10 10 10 6 9 10 4 7 4 0 -1
14 14 14 13 14 14 10 9 9 11 13 13 13 13 12 9 7 2 -4 -8 -9 -9 -9 -9 -10 -11 -11 -10 -10 -10 -9 4 9 10 10 10 10 9 7 3 -2 -0 1
14 15 14 14 14 15 13 10 10 13 14 13 13 12 10 8 3 -5 -12 -14 -14 -13 -12 -11 -10 -10 -9 -10 -10 -10 -4 9 9 10 10 9 9 6 2 -1 8 8 8
14 14 14 14 14 15 14 11 11 14 14 13 12 11 9 4 -6 -15 -14 -13 -12 -11 -10 -9 -9 -9 -9 -9 -8 -5 8 9 9 10 9 9 8 -0 1 9 9 9 10
13 13 14 13 14 13 15 12 13 14 14 12 11 10 7 -3 -15 -13 -10 -9 -9 -9 -8 -8 -8 -8 -7 -7 -6 -1 8 9 8 8 8 7 0 6 9 10 7 9 8
12 14 14 14 15 12 15 12 14 14 14 12 11 9 3 -13 -13 -11 -10 -7 -7 -7 -7 -7 -7 -7 -6 -5 -2 1 6 7 8 7 3 7 10 11 11 8 9 8 9
3 12 14 14 14 14 14 13 14 14 14 12 10 8 -8 -5 -7 -9 -7 -7 -6 -6 -6 -6 -5 -3 1 2 -0 4 6 7 7 6 10 11 11 11 10 9 7 5 1
-4 2 11 14 14 14 14 13 13 14 14 12 10 4 -4 1 -1 -2 -5 -5 -5 -5 -5 -5 -4 5 7 7 5 5 4 6 5 8 10 10 10 10 10 10 8 5 0
-4 -3 -2 10 14 14 14 13 14 14 13 12 10 0 3 -1 -1 -4 -2 -3 -3 -2 -0 2 3 5 6 6 6 4 4 4 6 5 10 9 9 9 9 8 5 2 0
-4 -4 -3 -3 4 13 13 14 14 14 13 12 9 2 -3 -4 -4 1 2 0 -1 4 4 6 5 4 5 3 4 4 3 2 5 4 6 9 9 8 5 4 2 -1 -2
-3 -3 -4 -5 -4 4 11 14 13 13 12 11 9 1 -3 -3 -3 -1 -0 -1 -2 2 4 4 5 6 4 4 4 3 1 -1 1 1 -2 1 3 3 2 0 -2 -4 -5
-3 -3 -4 -5 -4 -1 4 12 11 9 11 12 8 -1 -3 -3 -2 -3 -2 -3 -4 0 2 4 3 3 -1 1 -3 -6 -1 -1 -1 1 0 -2 -1 -1 -3 -4 -6 -7 -8
-4 -3 -4 -3 -3 1 6 11 12 8 6 6 6 -1 -4 -3 -2 -3 -4 -5 -4 0 0 -1 -2 -3 -5 -2 -4 -4 -4 -0 4 4 3 -1 -5 -7 -8 -9 -10 -12 -14
-3 -3 -3 -3 -1 4 6 10 11 10 10 7 4 -3 -4 -4 -3 -3 -4 -5 -5 -3 -0 -1 -2 -4 -7 -6 -1 -3 2 1 2 1 0 -4 -6 -6 -8 -9 -10 -11 -12
-3 -2 -2 -2 -2 -1 3 9 10 7 6 7 6 2 -1 -3 -3 -4 -4 -4 -5 -5 -5 -6 -5 -7 -14 -18 -16 -15 -6 1 3 3 2 -4 -5 -6 -8 -10 -10 -10 -9
-3 -2 -2 -2 3 2 2 6 10 10 8 7 5 4 2 -3 -4 -5 -5 -5 -6 -8 -11 -15 -19 -20 -20 -18 -16 -12 -11 -8 -2 -2 -1 2 -3 -10 -10 -9 -10 -14 -16
-2 -3 -2 -0 3 5 5 5 9 8 8 7 5 5 3 -3 -4 -4 -5 -6 -8 -13 -19 -21 -21 -20 -18 -15 -6 -7 -4 -6 -9 -9 -9 -8 -10 -8 -11 -15 -17 -16 -16
-2 -3 -2 1 5 6 7 8 9 7 6 5 5 3 1 -2 -4 -5 -6 -8 -15 -19 -20 -19 -18 -17 -16 -11 -8 -6 -6 -4 -6 -10 -9 -10 -11 -11 -9 -12 -14 -13 -14
-2 -3 -2 -0 6 7 7 8 8 7 6 5 3 3 1 -2 -4 -5 -8 -14 -16 -16 -16 -16 -15 -13 -12 -11 -10 -8 -5 -5 -3 -4 -5 -7 -7 -6 -8 -10 -12 -12 -11
-2 -2 -2 2 6 7 7 7 8 7 6 4 3 2 -0 -2 -5 -8 -12 -12 -12 -12 -11 -10 -9 -9 -8 -8 -7 -8 -10 -15 -9 -7 -4 -5 -8 -6 -9 -11 -11 -10 -10
-1 -2 -1 4 7 7 7 7 7 7 5 5 3 1 -2 -4 -6 -9 -9 -8 -8 -8 -8 -7 -7 -6 -7 -9 -15 -18 -17 -14 -14 -14 -14 -13 -14 -13 -15 -11 -10 -11 -15
Wind_Speed
8 10 18 17 16 16 15 15 14 14 13 13 12 10 9 9 8 6 6 5 5 6 5 5 5 9 6 6 6 6 6 7 7 9 9 10 10 10 10 8 9 7 7
13 9 21 19 17 16 16 15 14 13 12 12 12 10 9 8 7 6 5 6 6 3 4 4 5 5 4 5 4 4 5 6 8 9 10 10 9 6 7 7 7 8 8
11 13 21 19 18 17 16 15 15 13 11 10 10 9 8 8 7 5 5 4 3 3 2 1 0 2 3 3 4 4 4 5 7 10 11 7 5 9 8 7 7 7 8
12 17 20 20 19 17 16 15 14 13 11 9 9 8 9 10 6 4 4 4 5 6 5 3 3 3 3 3 2 1 2 5 10 12 6 4 3 6 5 6 7 7 6
14 18 16 20 18 17 16 15 14 12 11 9 10 11 11 9 6 5 6 6 6 5 4 4 4 5 6 5 4 2 1 6 13 10 4 3 1 5 4 6 7 6 6
13 17 14 18 18 17 16 16 14 14 12 13 13 13 10 8 7 6 7 7 7 6 6 6 6 6 6 4 2 1 4 10 12 10 2 3 2 6 5 6 7 7 6
9 20 16 17 19 17 16 15 15 14 16 15 15 12 10 9 8 7 7 7 7 6 5 5 4 3 2 1 1 3 7 13 12 5 3 1 3 4 4 7 8 8 8
9 11 18 19 19 20 17 17 17 17 18 15 14 13 11 10 8 7 7 6 5 5 4 3 2 2 1 2 4 8 13 15 12 6 3 1 5 5 5 6 9 11 12
18 14 17 20 21 23 20 20 20 21 18 16 15 12 11 10 9 7 6 6 6 5 5 4 4 3 4 5 8 13 16 13 11 9 5 2 3 3 5 9 8 11 13
17 23 20 23 25 28 24 23 24 23 21 16 15 12 11 10 9 8 8 7 6 6 5 5 5 5 7 8 11 15 15 9 9 9 6 4 2 8 10 10 8 8 4
13 20 22 23 23 30 29 27 26 25 21 18 15 13 12 10 10 10 8 7 7 6 6 6 7 7 8 9 11 12 11 8 7 4 1 7 9 13 13 6 6 4 1
17 19 22 26 23 27 31 29 29 26 22 20 17 13 11 9 10 8 8 7 7 7 7 8 9 10 10 9 10 10 8 8 6 6 11 14 12 11 7 5 1 5 7
20 21 21 28 25 28 34 32 32 29 24 23 20 15 13 15 11 7 7 8 8 9 9 9 11 12 11 6 7 8 8 9 5 12 13 15 8 5 2 4 3 7 9
23 25 24 24 23 30 32 33 35 34 26 25 23 19 20 16 14 11 10 10 10 10 10 9 8 11 13 10 8 6 9 12 7 12 11 11 7 4 1 4 6 7 6
27 26 29 27 26 29 37 34 35 29 28 26 24 21 21 18 15 13 12 11 12 13 13 14 9 9 10 10 10 8 8 9 8 7 13 11 9 9 8 8 6 6 6
30 28 28 32 31 27 34 39 36 35 30 27 25 23 21 19 17 18 16 15 14 15 13 15 14 13 10 11 11 9 7 8 8 6 4 10 10 8 6 5 5 6 7
29 28 27 31 32 29 33 36 35 26 31 30 27 23 23 20 18 18 18 17 17 16 16 16 15 13 11 10 8 9 8 7 6 5 2 3 4 3 3 4 5 6 6
29 29 27 29 30 29 26 33 39 33 25 30 29 26 25 21 20 19 19 18 18 17 14 14 13 12 11 10 8 8 7 9 9 4 4 2 2 2 2 4 5 5 6
29 26 27 31 30 28 26 28 37 30 33 21 27 27 26 23 22 20 20 18 18 18 16 15 14 12 13 12 11 10 8 6 6 4 3 3 1 2 3 4 5 6 7
27 26 25 28 35 32 27 25 34 32 31 20 21 25 27 24 22 21 19 19 18 18 17 16 16 15 13 12 10 9 9 9 5 4 2 1 1 1 4 5 6 8 10
30 25 26 31 31 32 29 26 31 35 34 34 22 20 27 25 24 20 20 19 18 17 16 15 14 13 12 13 12 9 8 6 6 4 3 1 2 3 4 6 7 9 10
29 31 27 30 34 30 27 25 34 38 38 35 23 19 22 24 21 20 20 20 18 17 16 14 13 13 13 14 11 9 8 7 5 3 3 2 2 4 6 8 7 9 9
30 30 30 32 32 30 26 28 36 33 31 26 25 23 25 22 21 21 20 19 18 16 15 14 13 13 13 13 14 7 6 4 6 4 3 3 3 5 5 6 9 10 12
30 32 34 32 30 30 29 29 38 42 35 30 26 28 24 24 22 22 20 18 17 16 15 14 12 12 12 13 12 8 7 9 5 5 4 4 6 5 8 9 12 10 13
32 33 33 31 31 30 31 31 42 42 38 35 32 27 27 25 24 22 19 18 17 16 15 14 13 11 12 11 11 13 12 11 8 7 6 4 4 6 9 13 10 12 12
32 34 31 32 30 31 32 39 44 44 42 38 31 30 30 27 25 22 20 18 17 16 15 15 14 13 13 13 13 12 11 11 9 4 3 3 5 6 11 10 10 13 18
Wind_Direction
227 221 190 181 179 170 164 159 156 154 153 152 143 138 141 137 135 130 129 131 126 109 90 77 72 79 68 81 72 68 76 78 76 69 59 53 48 53 59 58 51 39 46
238 246 188 183 183 178 171 166 163 160 159 156 154 157 148 140 136 128 128 131 127 101 101 60 63 79 77 83 89 68 67 73 74 68 55 51 27 26 54 52 43 45 45
223 236 192 186 185 185 179 174 167 166 164 161 158 155 150 145 142 146 158 162 143 126 140 159 117 92 61 69 66 65 67 82 90 81 57 35 40 9 43 47 45 41 44
201 231 201 187 189 188 186 179 176 172 170 167 162 157 156 157 166 165 169 197 216 223 228 221 224 265 299 310 313 326 86 98 100 85 77 101 23 354 20 29 32 24 9
188 228 217 191 192 192 190 185 183 178 174 172 176 179 179 194 219 214 216 226 235 243 228 228 253 274 284 290 296 310 115 107 105 91 98 190 72 314 355 2 360 3 355
185 228 219 199 194 198 196 191 187 184 183 180 185 196 204 232 247 240 236 235 240 243 241 247 259 270 279 287 306 60 113 115 105 96 197 231 246 306 354 15 1 356 15
198 221 230 216 205 204 205 197 194 194 191 189 197 211 229 243 248 249 244 237 233 235 239 243 251 260 271 292 83 109 117 122 112 110 135 44 310 321 8 1 6 21 24
189 201 219 219 221 209 206 205 201 200 195 204 210 222 234 244 249 248 242 237 232 229 229 230 231 222 180 123 118 116 120 112 119 140 133 233 281 303 355 27 56 47 46
206 210 216 221 224 216 207 206 203 202 209 214 220 228 235 246 248 235 224 223 222 223 221 212 193 166 137 127 120 118 118 118 144 132 143 185 306 331 65 92 71 79 69
205 225 232 231 222 219 210 208 205 207 214 221 224 231 240 242 237 227 218 217 219 216 206 189 170 145 131 123 121 126 123 107 106 179 214 250 113 100 100 112 85 92 97
258 227 224 229 222 220 215 210 207 214 224 222 225 229 237 234 227 228 226 211 212 201 186 167 150 142 129 123 124 129 126 115 175 193 132 119 110 116 124 114 115 104 289
266 247 232 228 229 219 217 211 212 216 227 224 225 226 224 228 215 211 217 214 200 177 169 157 142 129 125 109 127 130 133 150 180 117 113 111 124 131 122 148 82 345 339
269 258 256 235 229 223 217 212 216 217 221 224 224 214 202 218 219 209 201 188 177 164 157 149 143 130 115 153 141 165 159 133 173 139 149 138 156 181 166 80 343 336 334
267 269 259 248 251 232 222 220 216 217 217 223 223 205 203 215 208 203 190 179 165 162 143 135 149 160 168 155 153 146 150 151 191 162 175 178 179 198 255 320 326 327 329
265 265 267 260 252 230 235 216 211 215 215 220 222 209 211 213 198 187 193 184 172 162 166 167 174 149 161 168 162 169 160 157 183 188 196 206 221 236 281 298 308 321 330
263 259 262 267 260 248 240 213 209 210 209 211 215 213 207 212 199 193 193 186 180 171 178 170 174 170 176 166 169 171 165 166 170 204 170 207 233 254 274 294 314 326 330
261 262 258 258 266 253 245 241 209 198 207 213 212 209 205 210 197 196 192 190 177 177 180 181 183 183 172 174 170 167 161 150 145 161 178 160 203 239 288 315 325 331 332
261 258 250 254 253 252 245 232 217 195 182 204 205 203 202 202 196 194 192 189 181 178 184 180 176 168 159 158 152 149 148 153 145 179 166 240 308 321 340 342 349 350 345
254 256 251 258 250 247 248 228 221 202 210 203 207 196 197 196 195 194 192 188 183 181 179 177 170 177 169 164 166 154 150 138 160 177 211 237 258 330 350 0 346 345 341
252 246 246 256 248 245 247 231 211 196 187 186 214 193 190 192 190 192 185 186 184 184 182 179 182 178 172 161 160 159 160 161 172 145 260 279 359 351 347 352 354 347 337
251 240 241 252 245 240 236 232 215 203 200 195 198 195 191 188 190 188 184 181 180 178 177 178 176 174 164 160 151 139 134 145 160 180 200 191 339 24 27 356 345 337 337
246 240 236 242 244 238 234 234 220 197 195 200 185 200 201 189 187 185 184 179 178 176 174 173 173 167 163 161 149 130 133 134 130 157 164 156 77 12 10 1 356 337 336
246 238 233 235 235 234 228 219 211 193 184 186 194 201 210 188 183 185 179 174 172 169 169 169 172 166 162 164 166 154 155 136 146 117 108 109 36 12 331 319 336 324 321
248 238 235 232 230 227 227 218 218 199 184 181 190 197 195 185 180 181 175 169 168 163 165 164 169 168 157 151 160 161 141 140 146 143 101 74 24 338 320 320 324 310 312
248 232 228 225 221 222 221 219 215 202 192 171 180 192 188 177 177 172 167 165 166 160 161 161 164 164 157 153 149 137 132 126 132 138 138 174 300 281 314 326 329 320 327
230 223 219 218 214 220 217 213 207 200 189 177 173 194 183 173 171 164 164 165 161 158 159 157 157 155 146 142 134 130 126 121 118 120 131 292 337 328 328 344 338 324 322
Height
1501 1504 1505 1507 1509 1511 1513 1515 1517 1519 1521 1523 1525 1527 1528 1529 1531 1532 1533 1535 1535 1536 1537 1537 1538 1539 1539 1539 1540 1540 1541 1541 1542 1542 1543 1543 1543 1543 1543 1543 1542 1542 1542
1500 1503 1504 1506 1509 1511 1513 1515 1517 1519 1521 1523 1525 1527 1528 1530 1531 1532 1533 1535 1536 1537 1537 1538 1538 1539 1539 1539 1540 1540 1541 1541 1542 1543 1543 1544 1544 1544 1544 1544 1544 1543 1543
1502 1501 1504 1506 1508 1511 1513 1515 1517 1519 1521 1524 1526 1527 1528 1530 1531 1532 1533 1534 1535 1536 1537 1538 1539 1539 1539 1539 1540 1540 1541 1542 1543 1544 1544 1545 1545 1544 1544 1545 1545 1544 1544
1504 1500 1503 1506 1509 1511 1513 1515 1517 1519 1521 1524 1526 1528 1529 1530 1531 1532 1533 1533 1534 1535 1536 1537 1538 1538 1539 1539 1540 1540 1541 1542 1543 1545 1543 1544 1545 1545 1545 1545 1545 1545 1544
1504 1500 1503 1505 1508 1511 1514 1515 1518 1520 1522 1524 1526 1528 1529 1529 1530 1531 1531 1532 1533 1533 1535 1536 1537 1537 1538 1538 1538 1539 1540 1542 1543 1545 1546 1545 1546 1545 1545 1545 1545 1545 1544
1505 1502 1503 1505 1508 1511 1514 1516 1518 1520 1522 1523 1526 1527 1528 1529 1529 1530 1530 1530 1531 1532 1533 1534 1535 1536 1537 1537 1537 1538 1539 1541 1543 1545 1545 1545 1546 1545 1545 1545 1545 1544 1543
1503 1502 1503 1505 1507 1510 1513 1516 1518 1519 1521 1522 1524 1526 1527 1528 1528 1529 1529 1529 1530 1530 1531 1532 1533 1534 1535 1536 1537 1538 1539 1542 1544 1545 1545 1545 1545 1545 1545 1544 1544 1543 1543
1501 1503 1504 1505 1507 1508 1511 1514 1516 1518 1520 1521 1523 1524 1525 1526 1527 1527 1528 1528 1529 1529 1530 1531 1532 1533 1534 1536 1537 1539 1540 1542 1544 1545 1545 1545 1545 1544 1544 1544 1544 1543 1543
1502 1502 1503 1504 1506 1507 1509 1511 1514 1516 1518 1519 1522 1523 1524 1524 1525 1525 1526 1527 1528 1528 1529 1530 1531 1532 1533 1535 1537 1539 1541 1543 1543 1544 1544 1544 1544 1544 1544 1544 1545 1544 1544
1499 1501 1502 1504 1503 1505 1507 1508 1511 1514 1516 1518 1520 1522 1522 1523 1523 1524 1524 1526 1526 1527 1528 1529 1530 1531 1533 1535 1537 1539 1542 1543 1544 1542 1543 1544 1544 1544 1544 1545 1545 1545 1546
1498 1498 1499 1500 1501 1502 1504 1505 1507 1510 1513 1516 1518 1519 1520 1521 1521 1522 1523 1524 1525 1526 1527 1528 1530 1531 1533 1534 1537 1539 1541 1542 1542 1542 1543 1544 1544 1544 1545 1545 1546 1545 1546
1494 1496 1495 1496 1498 1499 1500 1503 1505 1507 1510 1513 1515 1517 1517 1518 1519 1521 1522 1523 1525 1526 1527 1528 1529 1531 1532 1534 1536 1538 1540 1541 1541 1542 1544 1544 1545 1545 1545 1546 1546 1546 1545
1490 1491 1493 1493 1495 1495 1495 1498 1501 1503 1506 1509 1512 1514 1515 1516 1517 1520 1521 1522 1524 1525 1527 1528 1529 1531 1532 1534 1535 1536 1538 1540 1540 1543 1544 1544 1545 1546 1546 1546 1546 1546 1545
1487 1487 1487 1490 1490 1490 1492 1495 1498 1499 1502 1505 1508 1511 1512 1514 1516 1518 1519 1521 1523 1525 1527 1528 1529 1530 1532 1534 1534 1535 1537 1539 1539 1542 1544 1545 1546 1546 1546 1546 1546 1546 1545
1482 1484 1483 1484 1486 1487 1488 1490 1493 1494 1497 1500 1504 1508 1509 1511 1513 1516 1517 1519 1521 1524 1527 1528 1529 1530 1531 1532 1533 1534 1535 1537 1538 1540 1542 1544 1544 1545 1545 1545 1546 1545 1545
1477 1478 1479 1479 1481 1482 1484 1486 1488 1489 1491 1495 1500 1505 1507 1508 1510 1512 1515 1517 1519 1522 1525 1527 1527 1528 1530 1531 1532 1533 1534 1536 1537 1538 1540 1542 1543 1544 1544 1545 1545 1545 1544
1471 1473 1474 1473 1475 1478 1480 1481 1485 1486 1486 1489 1495 1500 1504 1506 1508 1509 1513 1515 1517 1519 1522 1525 1526 1527 1528 1529 1531 1532 1534 1535 1537 1538 1539 1541 1541 1542 1543 1544 1544 1544 1543
1465 1467 1470 1468 1469 1471 1474 1478 1481 1484 1485 1491 1490 1492 1499 1503 1505 1507 1510 1513 1516 1517 1520 1523 1525 1525 1527 1528 1530 1531 1533 1535 1536 1537 1540 1539 1541 1542 1542 1542 1543 1543 1542
1459 1461 1464 1462 1463 1464 1468 1474 1478 1471 1475 1489 1489 1487 1493 1498 1501 1505 1507 1512 1514 1515 1518 1521 1523 1525 1525 1527 1529 1531 1532 1534 1536 1537 1539 1540 1541 1541 1541 1541 1541 1541 1541
1451 1455 1459 1457 1456 1459 1464 1469 1474 1478 1470 1489 1498 1492 1490 1494 1497 1501 1505 1509 1513 1513 1516 1520 1522 1523 1524 1526 1528 1530 1532 1533 1535 1537 1538 1539 1540 1541 1541 1541 1540 1540 1540
1445 1448 1452 1450 1450 1453 1457 1461 1465 1466 1471 1480 1493 1496 1491 1491 1494 1500 1504 1506 1510 1512 1515 1519 1521 1523 1524 1525 1526 1529 1531 1533 1534 1535 1537 1538 1539 1540 1540 1540 1540 1539 1538
1438 1441 1445 1444 1445 1449 1453 1457 1462 1465 1470 1472 1483 1487 1494 1490 1493 1500 1504 1503 1507 1510 1513 1518 1521 1522 1522 1524 1525 1527 1530 1533 1534 1534 1536 1538 1538 1539 1538 1538 1538 1537 1536
1432 1435 1437 1438 1441 1445 1450 1455 1459 1463 1464 1469 1471 1481 1498 1491 1493 1501 1503 1501 1505 1507 1512 1516 1520 1521 1521 1522 1523 1525 1527 1529 1533 1535 1536 1537 1537 1537 1537 1537 1536 1534 1533
1425 1427 1429 1432 1437 1440 1443 1448 1452 1455 1456 1460 1474 1484 1493 1491 1494 1501 1500 1500 1504 1506 1511 1515 1520 1520 1520 1520 1522 1523 1524 1526 1531 1535 1536 1536 1537 1537 1536 1535 1534 1532 1531
1415 1416 1420 1425 1430 1434 1438 1442 1446 1449 1452 1458 1469 1488 1493 1491 1496 1496 1497 1499 1503 1505 1510 1514 1518 1520 1519 1520 1521 1522 1523 1525 1529 1531 1534 1534 1535 1536 1535 1534 1532 1531 1530
1402 1405 1413 1418 1424 1428 1434 1438 1441 1444 1450 1455 1473 1488 1491 1488 1492 1490 1494 1500 1503 1505 1510 1514 1517 1519 1518 1519 1520 1522 1522 1524 1526 1531 1531 1532 1531 1533 1532 1532 1531 1530 1527